ProjectID,Date,Electric Generation,Electric Utility Import,Facility Electric Load
,YYYY-MM-DD,kW,kW,kW
45,2009-09-01,0.0,,0.0
45,2009-09-02,0.0,,0.0
45,2009-09-03,0.0,,0.0
45,2009-09-04,0.0,,0.0
45,2009-09-05,0.0,,0.0
45,2009-09-06,0.0,,0.0
45,2009-09-07,0.0,,0.0
45,2009-09-08,0.0,,0.0
45,2009-09-09,0.0,,0.0
45,2009-09-10,0.0,,0.0
45,2009-09-11,0.0,,0.0
45,2009-09-12,0.0,,0.0
45,2009-09-13,0.0,,0.0
45,2009-09-14,0.0,,0.0
45,2009-09-15,0.0,,0.0
45,2009-09-16,0.0,,0.0
45,2009-09-17,0.0,,0.0
45,2009-09-18,0.0,,0.0
45,2009-09-19,0.0,,0.0
45,2009-09-20,0.0,,0.0
45,2009-09-21,0.0,,0.0
45,2009-09-22,0.0,,0.0
45,2009-09-23,0.0,,0.0
45,2009-09-24,0.0,,0.0
45,2009-09-25,0.0,,0.0
45,2009-09-26,0.0,,0.0
45,2009-09-27,0.0,,0.0
45,2009-09-28,0.0,,0.0
45,2009-09-29,0.0,,0.0
45,2009-09-30,0.0,,0.0
45,2009-10-01,0.0,,0.0
45,2009-10-02,0.0,,0.0
45,2009-10-03,0.0,,0.0
45,2009-10-04,0.0,,0.0
45,2009-10-05,0.0,,0.0
45,2009-10-06,0.0,,0.0
45,2009-10-07,0.0,,0.0
45,2009-10-08,0.0,,0.0
45,2009-10-09,0.0,,0.0
45,2009-10-10,0.0,,0.0
45,2009-10-11,0.0,,0.0
45,2009-10-12,0.0,,0.0
45,2009-10-13,0.0,,0.0
45,2009-10-14,0.0,,0.0
45,2009-10-15,0.0,,0.0
45,2009-10-16,0.0,,0.0
45,2009-10-17,0.0,,0.0
45,2009-10-18,0.0,,0.0
45,2009-10-19,0.0,,0.0
45,2009-10-20,0.0,,0.0
45,2009-10-21,0.0,,0.0
45,2009-10-22,0.0,,0.0
45,2009-10-23,0.0,,0.0
45,2009-10-24,0.0,,0.0
45,2009-10-25,0.0,,0.0
45,2009-10-26,0.0,,0.0
45,2009-10-27,0.0,,0.0
45,2009-10-28,0.0,,0.0
45,2009-10-29,0.0,,0.0
45,2009-10-30,0.0,,0.0
45,2009-10-31,0.0,,0.0
45,2009-11-01,0.0,,0.0
45,2009-11-02,0.0,,0.0
45,2009-11-03,0.0,,0.0
45,2009-11-04,0.0,,0.0
45,2009-11-05,0.0,,0.0
45,2009-11-06,0.0,,0.0
45,2009-11-07,0.0,,0.0
45,2009-11-08,0.0,,0.0
45,2009-11-09,0.0,,0.0
45,2009-11-10,0.0,,0.0
45,2009-11-11,414.625,,414.625
45,2009-11-12,488.7083333333333,,488.7083333333333
45,2009-11-13,468.625,,468.625
45,2009-11-14,460.3333333333333,,460.3333333333333
45,2009-11-15,439.0416666666667,,439.0416666666667
45,2009-11-16,400.1666666666667,,400.1666666666667
45,2009-11-17,417.4583333333333,,417.4583333333333
45,2009-11-18,416.375,,416.375
45,2009-11-19,446.5416666666667,,446.5416666666667
45,2009-11-20,450.0,,450.0
45,2009-11-21,448.7916666666667,,448.7916666666667
45,2009-11-22,433.7916666666667,,433.7916666666667
45,2009-11-23,444.2916666666667,,444.2916666666667
45,2009-11-24,211.20833333333334,,211.20833333333334
45,2009-11-25,473.5833333333333,,473.5833333333333
45,2009-11-26,474.0833333333333,,474.0833333333333
45,2009-11-27,439.4166666666667,,439.4166666666667
45,2009-11-28,435.2916666666667,,435.2916666666667
45,2009-11-29,435.5,,435.5
45,2009-11-30,395.1666666666667,,395.1666666666667
45,2009-12-01,428.4166666666667,,428.4166666666667
45,2009-12-02,478.8333333333333,,478.8333333333333
45,2009-12-03,399.2916666666667,,399.2916666666667
45,2009-12-04,441.9583333333333,,441.9583333333333
45,2009-12-05,465.5,,465.5
45,2009-12-06,496.1666666666667,,496.1666666666667
45,2009-12-07,473.7083333333333,,473.7083333333333
45,2009-12-08,465.2916666666667,,465.2916666666667
45,2009-12-09,460.9166666666667,,460.9166666666667
45,2009-12-10,473.5416666666667,,473.5416666666667
45,2009-12-11,431.0,,431.0
45,2009-12-12,442.1666666666667,,442.1666666666667
45,2009-12-13,421.5,,421.5
45,2009-12-14,435.7916666666667,,435.7916666666667
45,2009-12-15,431.625,,431.625
45,2009-12-16,314.8333333333333,,314.8333333333333
45,2009-12-17,464.125,,464.125
45,2009-12-18,482.375,,482.375
45,2009-12-19,462.5,,462.5
45,2009-12-20,396.8333333333333,,396.8333333333333
45,2009-12-21,378.75,,378.75
45,2009-12-22,369.4166666666667,,369.4166666666667
45,2009-12-23,395.625,,395.625
45,2009-12-24,427.0833333333333,,427.0833333333333
45,2009-12-25,428.5416666666667,,428.5416666666667
45,2009-12-26,432.25,,432.25
45,2009-12-27,436.3333333333333,,436.3333333333333
45,2009-12-28,428.6666666666667,,428.6666666666667
45,2009-12-29,429.7916666666667,,429.7916666666667
45,2009-12-30,447.0833333333333,,447.0833333333333
45,2009-12-31,444.9427083333333,,444.9427083333333
45,2010-01-01,419.890625,,419.890625
45,2010-01-02,474.2916666666667,,474.2916666666667
45,2010-01-03,474.875,,474.875
45,2010-01-04,408.0833333333333,,408.0833333333333
45,2010-01-05,401.0833333333333,,401.0833333333333
45,2010-01-06,454.375,,454.375
45,2010-01-07,446.125,,446.125
45,2010-01-08,459.375,,459.375
45,2010-01-09,457.75,,457.75
45,2010-01-10,452.7916666666667,,452.7916666666667
45,2010-01-11,349.5,,349.5
45,2010-01-12,406.5,,406.5
45,2010-01-13,393.7083333333333,,393.7083333333333
45,2010-01-14,400.25,,400.25
45,2010-01-15,439.125,,439.125
45,2010-01-16,497.1666666666667,,497.1666666666667
45,2010-01-17,448.0,,448.0
45,2010-01-18,402.6666666666667,,402.6666666666667
45,2010-01-19,463.9583333333333,,463.9583333333333
45,2010-01-20,463.375,,463.375
45,2010-01-21,364.0,,364.0
45,2010-01-22,475.4166666666667,,475.4166666666667
45,2010-01-23,474.625,,474.625
45,2010-01-24,445.5416666666667,,445.5416666666667
45,2010-01-25,454.4583333333333,,454.4583333333333
45,2010-01-26,468.0,,468.0
45,2010-01-27,454.25,,454.25
45,2010-01-28,489.7083333333333,,489.7083333333333
45,2010-01-29,445.4166666666667,,445.4166666666667
45,2010-01-30,484.0833333333333,,484.0833333333333
45,2010-01-31,478.5416666666667,,478.5416666666667
45,2010-02-01,450.9166666666667,,450.9166666666667
45,2010-02-02,389.9583333333333,,389.9583333333333
45,2010-02-03,432.4166666666667,,432.4166666666667
45,2010-02-04,408.4583333333333,,408.4583333333333
45,2010-02-05,275.7083333333333,,275.7083333333333
45,2010-02-06,442.0,,442.0
45,2010-02-07,390.7083333333333,,390.7083333333333
45,2010-02-08,356.0,,356.0
45,2010-02-09,439.9583333333333,,439.9583333333333
45,2010-02-10,488.2083333333333,,488.2083333333333
45,2010-02-11,339.2916666666667,,339.2916666666667
45,2010-02-12,477.4583333333333,,477.4583333333333
45,2010-02-13,498.0833333333333,,498.0833333333333
45,2010-02-14,498.125,,498.125
45,2010-02-15,484.7916666666667,,484.7916666666667
45,2010-02-16,495.9166666666667,,495.9166666666667
45,2010-02-17,493.6666666666667,,493.6666666666667
45,2010-02-18,497.0,,497.0
45,2010-02-19,480.8333333333333,,480.8333333333333
45,2010-02-20,450.875,,450.875
45,2010-02-21,436.0,,436.0
45,2010-02-22,445.0,,445.0
45,2010-02-23,432.5416666666667,,432.5416666666667
45,2010-02-24,479.0,,479.0
45,2010-02-25,473.5833333333333,,473.5833333333333
45,2010-02-26,340.7083333333333,,340.7083333333333
45,2010-02-27,490.625,,490.625
45,2010-02-28,496.375,,496.375
45,2010-03-01,498.0833333333333,,498.0833333333333
45,2010-03-02,496.2916666666667,,496.2916666666667
45,2010-03-03,473.9166666666667,,473.9166666666667
45,2010-03-04,487.0416666666667,,487.0416666666667
45,2010-03-05,497.125,,497.125
45,2010-03-06,496.9583333333333,,496.9583333333333
45,2010-03-07,498.0416666666667,,498.0416666666667
45,2010-03-08,418.2083333333333,,418.2083333333333
45,2010-03-09,487.25,,487.25
45,2010-03-10,310.0833333333333,,310.0833333333333
45,2010-03-11,496.0416666666667,,496.0416666666667
45,2010-03-12,273.875,,273.875
45,2010-03-13,498.125,,498.125
45,2010-03-14,498.0416666666667,,498.0416666666667
45,2010-03-15,497.5416666666667,,497.5416666666667
45,2010-03-16,497.5416666666667,,497.5416666666667
45,2010-03-17,498.0833333333333,,498.0833333333333
45,2010-03-18,498.0833333333333,,498.0833333333333
45,2010-03-19,404.2916666666667,,404.2916666666667
45,2010-03-20,498.125,,498.125
45,2010-03-21,498.0833333333333,,498.0833333333333
45,2010-03-22,498.0416666666667,,498.0416666666667
45,2010-03-23,485.625,,485.625
45,2010-03-24,498.0416666666667,,498.0416666666667
45,2010-03-25,498.125,,498.125
45,2010-03-26,497.875,,497.875
45,2010-03-27,498.0833333333333,,498.0833333333333
45,2010-03-28,498.0833333333333,,498.0833333333333
45,2010-03-29,498.0416666666667,,498.0416666666667
45,2010-03-30,498.0833333333333,,498.0833333333333
45,2010-03-31,498.125,,498.125
45,2010-04-01,427.625,,427.625
45,2010-04-02,483.75,,483.75
45,2010-04-03,490.625,,490.625
45,2010-04-04,487.125,,487.125
45,2010-04-05,457.2916666666667,,457.2916666666667
45,2010-04-06,485.375,,485.375
45,2010-04-07,486.0,,486.0
45,2010-04-08,493.375,,493.375
45,2010-04-09,464.2916666666667,,464.2916666666667
45,2010-04-10,493.875,,493.875
45,2010-04-11,493.8333333333333,,493.8333333333333
45,2010-04-12,490.1666666666667,,490.1666666666667
45,2010-04-13,489.75,,489.75
45,2010-04-14,486.625,,486.625
45,2010-04-15,478.7916666666667,,478.7916666666667
45,2010-04-16,455.4166666666667,,455.4166666666667
45,2010-04-17,441.625,,441.625
45,2010-04-18,468.25,,468.25
45,2010-04-19,448.625,,448.625
45,2010-04-20,484.9166666666667,,484.9166666666667
45,2010-04-21,490.9166666666667,,490.9166666666667
45,2010-04-22,490.7083333333333,,490.7083333333333
45,2010-04-23,256.625,,256.625
45,2010-04-24,480.75,,480.75
45,2010-04-25,474.0416666666667,,474.0416666666667
45,2010-04-26,478.0416666666667,,478.0416666666667
45,2010-04-27,459.4583333333333,,459.4583333333333
45,2010-04-28,405.2916666666667,,405.2916666666667
45,2010-04-29,491.25,,491.25
45,2010-04-30,474.875,,474.875
45,2010-05-01,458.2916666666667,,458.2916666666667
45,2010-05-02,428.75,,428.75
45,2010-05-03,398.5833333333333,,398.5833333333333
45,2010-05-04,361.7083333333333,,361.7083333333333
45,2010-05-05,338.0,,338.0
45,2010-05-06,318.875,,318.875
45,2010-05-07,303.7083333333333,,303.7083333333333
45,2010-05-08,276.0416666666667,,276.0416666666667
45,2010-05-09,353.6666666666667,,353.6666666666667
45,2010-05-10,425.375,,425.375
45,2010-05-11,490.4166666666667,,490.4166666666667
45,2010-05-12,498.0833333333333,,498.0833333333333
45,2010-05-13,498.0416666666667,,498.0416666666667
45,2010-05-14,498.0833333333333,,498.0833333333333
45,2010-05-15,498.0833333333333,,498.0833333333333
45,2010-05-16,498.0833333333333,,498.0833333333333
45,2010-05-17,498.0416666666667,,498.0416666666667
45,2010-05-18,498.0833333333333,,498.0833333333333
45,2010-05-19,498.0416666666667,,498.0416666666667
45,2010-05-20,462.9166666666667,,462.9166666666667
45,2010-05-21,498.0833333333333,,498.0833333333333
45,2010-05-22,498.0416666666667,,498.0416666666667
45,2010-05-23,498.0416666666667,,498.0416666666667
45,2010-05-24,485.1666666666667,,485.1666666666667
45,2010-05-25,487.3333333333333,,487.3333333333333
45,2010-05-26,344.5416666666667,,344.5416666666667
45,2010-05-27,416.6666666666667,,416.6666666666667
45,2010-05-28,366.7916666666667,,366.7916666666667
45,2010-05-29,494.25,,494.25
45,2010-05-30,477.0416666666667,,477.0416666666667
45,2010-05-31,468.4166666666667,,468.4166666666667
45,2010-06-01,442.2083333333333,,442.2083333333333
45,2010-06-02,489.75,,489.75
45,2010-06-03,491.9166666666667,,491.9166666666667
45,2010-06-04,494.4583333333333,,494.4583333333333
45,2010-06-05,498.125,,498.125
45,2010-06-06,498.0416666666667,,498.0416666666667
45,2010-06-07,493.875,,493.875
45,2010-06-08,484.1666666666667,,484.1666666666667
45,2010-06-09,495.0,,495.0
45,2010-06-10,498.0416666666667,,498.0416666666667
45,2010-06-11,496.9270833333333,,496.9270833333333
45,2010-06-12,494.78125,,494.78125
45,2010-06-13,492.5,,492.5
45,2010-06-14,463.125,,463.125
45,2010-06-15,278.625,,278.625
45,2010-06-16,498.125,,498.125
45,2010-06-17,496.3333333333333,,496.3333333333333
45,2010-06-18,498.0,,498.0
45,2010-06-19,498.125,,498.125
45,2010-06-20,495.4583333333333,,495.4583333333333
45,2010-06-21,481.9583333333333,,481.9583333333333
45,2010-06-22,488.5,,488.5
45,2010-06-23,493.625,,493.625
45,2010-06-24,491.5416666666667,,491.5416666666667
45,2010-06-25,497.6666666666667,,497.6666666666667
45,2010-06-26,498.0833333333333,,498.0833333333333
45,2010-06-27,498.0833333333333,,498.0833333333333
45,2010-06-28,498.0416666666667,,498.0416666666667
45,2010-06-29,493.4583333333333,,493.4583333333333
45,2010-06-30,489.0416666666667,,489.0416666666667
45,2010-07-01,493.2916666666667,,493.2916666666667
45,2010-07-02,414.75,,414.75
45,2010-07-03,498.0416666666667,,498.0416666666667
45,2010-07-04,497.9166666666667,,497.9166666666667
45,2010-07-05,496.6666666666667,,496.6666666666667
45,2010-07-06,495.7916666666667,,495.7916666666667
45,2010-07-07,491.1666666666667,,491.1666666666667
45,2010-07-08,481.0416666666667,,481.0416666666667
45,2010-07-09,451.0,,451.0
45,2010-07-10,469.0,,469.0
45,2010-07-11,449.9166666666667,,449.9166666666667
45,2010-07-12,468.6666666666667,,468.6666666666667
45,2010-07-13,494.1666666666667,,494.1666666666667
45,2010-07-14,480.4166666666667,,480.4166666666667
45,2010-07-15,495.9583333333333,,495.9583333333333
45,2010-07-16,498.0833333333333,,498.0833333333333
45,2010-07-17,497.375,,497.375
45,2010-07-18,498.0833333333333,,498.0833333333333
45,2010-07-19,489.125,,489.125
45,2010-07-20,488.3333333333333,,488.3333333333333
45,2010-07-21,317.3333333333333,,317.3333333333333
45,2010-07-22,493.9583333333333,,493.9583333333333
45,2010-07-23,488.2916666666667,,488.2916666666667
45,2010-07-24,489.0833333333333,,489.0833333333333
45,2010-07-25,498.0833333333333,,498.0833333333333
45,2010-07-26,498.0416666666667,,498.0416666666667
45,2010-07-27,498.0833333333333,,498.0833333333333
45,2010-07-28,498.0416666666667,,498.0416666666667
45,2010-07-29,498.0416666666667,,498.0416666666667
45,2010-07-30,498.0833333333333,,498.0833333333333
45,2010-07-31,496.9583333333333,,496.9583333333333
45,2010-08-01,498.0416666666667,,498.0416666666667
45,2010-08-02,497.8333333333333,,497.8333333333333
45,2010-08-03,496.0,,496.0
45,2010-08-04,497.0,,497.0
45,2010-08-05,498.0416666666667,,498.0416666666667
45,2010-08-06,497.5833333333333,,497.5833333333333
45,2010-08-07,483.4583333333333,,483.4583333333333
45,2010-08-08,494.7916666666667,,494.7916666666667
45,2010-08-09,395.5833333333333,,395.5833333333333
45,2010-08-10,487.5416666666667,,487.5416666666667
45,2010-08-11,472.5416666666667,,472.5416666666667
45,2010-08-12,495.8333333333333,,495.8333333333333
45,2010-08-13,490.8333333333333,,490.8333333333333
45,2010-08-14,498.0833333333333,,498.0833333333333
45,2010-08-15,498.0833333333333,,498.0833333333333
45,2010-08-16,421.0,,421.0
45,2010-08-17,270.9166666666667,,270.9166666666667
45,2010-08-18,483.9583333333333,,483.9583333333333
45,2010-08-19,497.7916666666667,,497.7916666666667
45,2010-08-20,369.6666666666667,,369.6666666666667
45,2010-08-21,491.9583333333333,,491.9583333333333
45,2010-08-22,498.0833333333333,,498.0833333333333
45,2010-08-23,498.0833333333333,,498.0833333333333
45,2010-08-24,479.375,,479.375
45,2010-08-25,402.875,,402.875
45,2010-08-26,306.4583333333333,,306.4583333333333
45,2010-08-27,419.125,,419.125
45,2010-08-28,494.9583333333333,,494.9583333333333
45,2010-08-29,487.0416666666667,,487.0416666666667
45,2010-08-30,498.0833333333333,,498.0833333333333
45,2010-08-31,458.4583333333333,,458.4583333333333
45,2010-09-01,498.0833333333333,,498.0833333333333
45,2010-09-02,498.0416666666667,,498.0416666666667
45,2010-09-03,484.8333333333333,,484.8333333333333
45,2010-09-04,491.7916666666667,,491.7916666666667
45,2010-09-05,356.4583333333333,,356.4583333333333
45,2010-09-06,459.1666666666667,,459.1666666666667
45,2010-09-07,487.9166666666667,,487.9166666666667
45,2010-09-08,496.5833333333333,,496.5833333333333
45,2010-09-09,494.0833333333333,,494.0833333333333
45,2010-09-10,495.5,,495.5
45,2010-09-11,458.4583333333333,,458.4583333333333
45,2010-09-12,454.125,,454.125
45,2010-09-13,495.6666666666667,,495.6666666666667
45,2010-09-14,471.3333333333333,,471.3333333333333
45,2010-09-15,488.4583333333333,,488.4583333333333
45,2010-09-16,355.4166666666667,,355.4166666666667
45,2010-09-17,492.4166666666667,,492.4166666666667
45,2010-09-18,498.0416666666667,,498.0416666666667
45,2010-09-19,495.7083333333333,,495.7083333333333
45,2010-09-20,490.875,,490.875
45,2010-09-21,484.8333333333333,,484.8333333333333
45,2010-09-22,489.0833333333333,,489.0833333333333
45,2010-09-23,365.5,,365.5
45,2010-09-24,498.0416666666667,,498.0416666666667
45,2010-09-25,467.375,,467.375
45,2010-09-26,497.9166666666667,,497.9166666666667
45,2010-09-27,492.7916666666667,,492.7916666666667
45,2010-09-28,483.0,,483.0
45,2010-09-29,498.0416666666667,,498.0416666666667
45,2010-09-30,498.0416666666667,,498.0416666666667
45,2010-10-01,487.2916666666667,,487.2916666666667
45,2010-10-02,492.875,,492.875
45,2010-10-03,445.125,,445.125
45,2010-10-04,450.4166666666667,,450.4166666666667
45,2010-10-05,441.5,,441.5
45,2010-10-06,480.125,,480.125
45,2010-10-07,472.8333333333333,,472.8333333333333
45,2010-10-08,420.4166666666667,,420.4166666666667
45,2010-10-09,452.5,,452.5
45,2010-10-10,478.75,,478.75
45,2010-10-11,445.2083333333333,,445.2083333333333
45,2010-10-12,489.6666666666667,,489.6666666666667
45,2010-10-13,481.0,,481.0
45,2010-10-14,439.6666666666667,,439.6666666666667
45,2010-10-15,497.4166666666667,,497.4166666666667
45,2010-10-16,497.8333333333333,,497.8333333333333
45,2010-10-17,496.0416666666667,,496.0416666666667
45,2010-10-18,491.0416666666667,,491.0416666666667
45,2010-10-19,488.875,,488.875
45,2010-10-20,498.0416666666667,,498.0416666666667
45,2010-10-21,480.125,,480.125
45,2010-10-22,488.625,,488.625
45,2010-10-23,496.2916666666667,,496.2916666666667
45,2010-10-24,486.625,,486.625
45,2010-10-25,496.0,,496.0
45,2010-10-26,474.6666666666667,,474.6666666666667
45,2010-10-27,491.875,,491.875
45,2010-10-28,493.75,,493.75
45,2010-10-29,487.375,,487.375
45,2010-10-30,467.625,,467.625
45,2010-10-31,489.75,,489.75
45,2010-11-01,467.8333333333333,,467.8333333333333
45,2010-11-02,494.9583333333333,,494.9583333333333
45,2010-11-03,496.4583333333333,,496.4583333333333
45,2010-11-04,419.1666666666667,,419.1666666666667
45,2010-11-05,487.0833333333333,,487.0833333333333
45,2010-11-06,498.0833333333333,,498.0833333333333
45,2010-11-07,489.375,,489.375
45,2010-11-08,483.625,,483.625
45,2010-11-09,477.625,,477.625
45,2010-11-10,478.4583333333333,,478.4583333333333
45,2010-11-11,490.1666666666667,,490.1666666666667
45,2010-11-12,494.0416666666667,,494.0416666666667
45,2010-11-13,481.2916666666667,,481.2916666666667
45,2010-11-14,477.5416666666667,,477.5416666666667
45,2010-11-15,416.0416666666667,,416.0416666666667
45,2010-11-16,482.9583333333333,,482.9583333333333
45,2010-11-17,472.625,,472.625
45,2010-11-18,466.5416666666667,,466.5416666666667
45,2010-11-19,498.0833333333333,,498.0833333333333
45,2010-11-20,494.9166666666667,,494.9166666666667
45,2010-11-21,498.125,,498.125
45,2010-11-22,477.5416666666667,,477.5416666666667
45,2010-11-23,472.7083333333333,,472.7083333333333
45,2010-11-24,367.125,,367.125
45,2010-11-25,485.0833333333333,,485.0833333333333
45,2010-11-26,444.7916666666667,,444.7916666666667
45,2010-11-27,495.0833333333333,,495.0833333333333
45,2010-11-28,489.3333333333333,,489.3333333333333
45,2010-11-29,489.9166666666667,,489.9166666666667
45,2010-11-30,498.0416666666667,,498.0416666666667
45,2010-12-01,484.375,,484.375
45,2010-12-02,480.875,,480.875
45,2010-12-03,479.9166666666667,,479.9166666666667
45,2010-12-04,485.9166666666667,,485.9166666666667
45,2010-12-05,493.125,,493.125
45,2010-12-06,467.7083333333333,,467.7083333333333
45,2010-12-07,469.1666666666667,,469.1666666666667
45,2010-12-08,464.4583333333333,,464.4583333333333
45,2010-12-09,493.1666666666667,,493.1666666666667
45,2010-12-10,496.4166666666667,,496.4166666666667
45,2010-12-11,498.0833333333333,,498.0833333333333
45,2010-12-12,496.7083333333333,,496.7083333333333
45,2010-12-13,480.25,,480.25
45,2010-12-14,453.9583333333333,,453.9583333333333
45,2010-12-15,497.7916666666667,,497.7916666666667
45,2010-12-16,479.2083333333333,,479.2083333333333
45,2010-12-17,397.0833333333333,,397.0833333333333
45,2010-12-18,482.0416666666667,,482.0416666666667
45,2010-12-19,494.1666666666667,,494.1666666666667
45,2010-12-20,469.0,,469.0
45,2010-12-21,480.8333333333333,,480.8333333333333
45,2010-12-22,477.75,,477.75
45,2010-12-23,477.625,,477.625
45,2010-12-24,486.7083333333333,,486.7083333333333
45,2010-12-25,488.9583333333333,,488.9583333333333
45,2010-12-26,493.4166666666667,,493.4166666666667
45,2010-12-27,475.4583333333333,,475.4583333333333
45,2010-12-28,483.5,,483.5
45,2010-12-29,495.7916666666667,,495.7916666666667
45,2010-12-30,498.0833333333333,,498.0833333333333
45,2010-12-31,492.375,,492.375
45,2011-01-01,493.7916666666667,,493.7916666666667
45,2011-01-02,483.5416666666667,,483.5416666666667
45,2011-01-03,400.8333333333333,,400.8333333333333
45,2011-01-04,228.125,,228.125
45,2011-01-05,0.0,,0.0
45,2011-01-06,91.58333333333333,,91.58333333333333
45,2011-01-07,478.25,,478.25
45,2011-01-08,417.5416666666667,,417.5416666666667
45,2011-01-09,457.875,,457.875
45,2011-01-10,269.9166666666667,,269.9166666666667
45,2011-01-11,451.2083333333333,,451.2083333333333
45,2011-01-12,454.5,,454.5
45,2011-01-13,335.375,,335.375
45,2011-01-14,229.83333333333334,,229.83333333333334
45,2011-01-15,356.875,,356.875
45,2011-01-16,400.2083333333333,,400.2083333333333
45,2011-01-17,459.5833333333333,,459.5833333333333
45,2011-01-18,468.0833333333333,,468.0833333333333
45,2011-01-19,494.0,,494.0
45,2011-01-20,487.0416666666667,,487.0416666666667
45,2011-01-21,481.0416666666667,,481.0416666666667
45,2011-01-22,471.4583333333333,,471.4583333333333
45,2011-01-23,496.4166666666667,,496.4166666666667
45,2011-01-24,474.9166666666667,,474.9166666666667
45,2011-01-25,476.6666666666667,,476.6666666666667
45,2011-01-26,483.9166666666667,,483.9166666666667
45,2011-01-27,295.25,,295.25
45,2011-01-28,496.75,,496.75
45,2011-01-29,465.75,,465.75
45,2011-01-30,490.4583333333333,,490.4583333333333
45,2011-01-31,493.7083333333333,,493.7083333333333
45,2011-02-01,473.75,,473.75
45,2011-02-02,443.5833333333333,,443.5833333333333
45,2011-02-03,486.625,,486.625
45,2011-02-04,465.0416666666667,,465.0416666666667
45,2011-02-05,495.8333333333333,,495.8333333333333
45,2011-02-06,472.0833333333333,,472.0833333333333
45,2011-02-07,469.0,,469.0
45,2011-02-08,404.5,,404.5
45,2011-02-09,415.5,,415.5
45,2011-02-10,416.7083333333333,,416.7083333333333
45,2011-02-11,315.9583333333333,,315.9583333333333
45,2011-02-12,306.4583333333333,,306.4583333333333
45,2011-02-13,298.875,,298.875
45,2011-02-14,288.0416666666667,,288.0416666666667
45,2011-02-15,209.91666666666666,,209.91666666666666
45,2011-02-16,498.0833333333333,,498.0833333333333
45,2011-02-17,497.0,,497.0
45,2011-02-18,498.0833333333333,,498.0833333333333
45,2011-02-19,482.9166666666667,,482.9166666666667
45,2011-02-20,403.7083333333333,,403.7083333333333
45,2011-02-21,379.9583333333333,,379.9583333333333
45,2011-02-22,463.3333333333333,,463.3333333333333
45,2011-02-23,483.4166666666667,,483.4166666666667
45,2011-02-24,475.9583333333333,,475.9583333333333
45,2011-02-25,449.25,,449.25
45,2011-02-26,371.4583333333333,,371.4583333333333
45,2011-02-27,470.0833333333333,,470.0833333333333
45,2011-02-28,447.1666666666667,,447.1666666666667
45,2011-03-01,490.9166666666667,,490.9166666666667
45,2011-03-02,485.2083333333333,,485.2083333333333
45,2011-03-03,458.3333333333333,,458.3333333333333
45,2011-03-04,491.4583333333333,,491.4583333333333
45,2011-03-05,482.4583333333333,,482.4583333333333
45,2011-03-06,414.7916666666667,,414.7916666666667
45,2011-03-07,370.4583333333333,,370.4583333333333
45,2011-03-08,441.3333333333333,,441.3333333333333
45,2011-03-09,472.25,,472.25
45,2011-03-10,494.5,,494.5
45,2011-03-11,498.0833333333333,,498.0833333333333
45,2011-03-12,498.0833333333333,,498.0833333333333
45,2011-03-13,498.0416666666667,,498.0416666666667
45,2011-03-14,498.0416666666667,,498.0416666666667
45,2011-03-15,456.9583333333333,,456.9583333333333